Powrót do katalogu

STARLINK-3957

AktywnyŁącznośćVLEO
NORAD 52562·PAYLOAD·🇺🇸 United States

Wystrzelony May 13, 2022 z Vandenberg Space Force Base

Loading…

Następne Przeloty (najbliższe 24 godziny)

TLE

ŚwieżeSource: CelesTrak SupGP

Epoka: Sep 15, 2026, 01:48 UTC

1 52562C 22051AF  26258.07548611  .00042686  00000+0  12612-2 0  2582
2 52562  53.1586 333.1142 0001186  89.4993  79.8830 15.34367842    14

Śledź STARLINK-3957 w czasie rzeczywistym z AllMySat

Download on the App Store